GFSSGP_250_spd_021.txt.gz
Wind_Speed
50 46 41 43 46 46 46 50 45 40 41 41 38 40 39 41 41 40 41 42 41 39 35 39 45 43 43 42 43 54 59 58 60 55 57 56 58 54 53 54 54 59 55 56 54 52 52 52 52
49 47 47 41 44 53 47 45 45 46 44 46 50 49 45 43 42 45 47 46 44 41 45 44 45 44 43 42 49 56 59 60 56 56 57 55 54 53 55 54 57 61 59 54 55 54 54 55 59
57 54 50 49 46 47 46 50 49 49 52 56 53 51 46 49 50 52 49 46 46 45 44 44 48 45 43 51 55 59 57 58 58 59 59 57 58 58 58 55 60 60 58 58 58 57 59 59 58
64 61 52 56 53 54 54 53 56 51 51 55 55 54 51 54 55 55 51 48 49 48 45 46 50 52 56 58 62 61 62 62 60 62 63 62 64 62 59 59 61 60 59 57 60 61 61 61 61
72 66 53 53 54 57 56 60 61 59 55 57 57 53 50 52 53 55 48 48 47 48 47 48 54 56 59 61 62 65 65 65 64 66 67 68 66 64 61 61 63 64 59 61 60 61 60 60 59
58 62 51 52 56 61 61 63 62 56 57 59 61 59 44 40 46 44 50 45 46 49 47 49 59 60 53 57 61 63 67 63 65 69 70 68 67 65 62 65 67 64 62 60 61 60 57 57 55
75 69 63 56 59 63 66 65 62 58 57 59 58 60 55 52 50 46 47 48 46 45 46 49 51 68 61 64 66 68 68 66 69 71 70 68 66 66 65 70 68 65 65 64 60 55 51 48 49
84 82 82 69 64 61 66 69 70 63 63 60 59 62 63 62 62 60 57 59 58 55 53 52 53 65 68 64 69 71 74 71 72 73 69 66 64 68 71 72 71 67 66 62 58 49 49 50 49
82 79 76 77 71 70 69 71 75 73 68 63 60 56 56 54 56 58 68 69 70 68 68 64 61 62 73 72 71 74 73 73 72 75 70 66 68 71 73 74 71 68 67 60 53 53 52 50 48
80 73 71 75 80 78 74 73 73 72 68 73 67 64 60 59 57 59 67 66 64 64 57 60 61 65 71 76 73 75 75 73 76 75 70 70 72 74 77 73 71 70 66 58 58 55 54 49 45
80 71 70 73 76 78 80 76 73 74 70 73 73 71 73 71 67 65 69 67 63 63 62 61 64 63 68 72 73 76 77 77 79 76 72 73 75 76 77 73 70 69 66 59 59 54 54 49 41
90 79 76 77 80 81 78 82 81 77 72 71 72 73 72 77 77 76 74 71 71 64 64 61 62 64 68 71 72 81 79 78 78 76 74 74 75 76 74 71 70 68 67 64 57 53 50 48 46
82 82 88 84 82 77 76 76 75 75 71 67 71 74 75 79 79 76 76 71 66 64 65 71 64 68 73 73 77 82 79 80 76 76 76 78 76 74 72 71 67 63 64 59 54 49 44 42 40
85 89 86 90 85 81 78 73 70 67 70 70 71 69 70 73 75 73 69 65 69 70 69 74 71 75 77 81 80 81 78 79 78 78 77 76 75 73 72 69 66 63 59 52 45 41 34 31 31
89 93 89 79 73 76 78 64 62 69 70 69 71 70 73 74 69 72 71 72 67 70 75 77 76 80 81 83 80 75 75 77 78 74 74 74 72 73 71 68 63 62 61 51 38 32 30 29 30
90 95 90 78 80 79 90 66 71 68 71 73 73 76 77 75 76 76 74 72 71 71 76 81 78 81 82 80 76 76 74 74 74 71 69 68 69 71 70 68 64 61 55 45 34 25 25 28 29
97 89 84 77 78 85 92 73 74 76 80 80 79 80 78 79 80 81 82 81 80 79 82 80 75 75 76 78 78 76 76 75 71 69 64 64 67 69 69 66 62 56 46 38 33 31 30 32 34
102 98 90 80 89 94 94 87 81 85 87 82 81 80 81 79 80 84 88 84 82 76 78 76 75 70 72 74 77 74 74 74 69 59 54 59 66 68 67 65 59 50 42 40 39 39 37 37 39
102 102 96 95 96 100 93 91 87 83 86 88 85 87 86 87 88 86 86 80 72 69 71 73 69 66 67 70 72 71 69 65 62 52 53 62 65 65 61 56 48 46 43 39 37 37 36 37 38
98 97 95 97 97 99 95 96 90 84 84 86 85 85 83 84 85 84 77 76 74 71 67 64 62 60 62 65 65 63 60 55 55 55 58 60 62 60 53 46 43 42 41 36 28 29 27 27 30
92 87 84 88 96 95 94 94 83 83 84 81 81 79 79 80 76 71 69 66 66 67 61 56 56 57 59 60 58 55 50 52 52 53 57 59 58 53 45 42 41 30 26 24 22 20 19 17 15
91 87 86 87 89 82 88 76 68 76 74 75 73 68 67 65 64 59 58 58 59 59 55 54 52 54 54 53 51 47 46 45 49 52 53 53 49 44 41 37 27 24 22 19 17 15 14 13 12
80 83 86 86 86 84 75 67 61 69 67 66 63 58 56 52 52 54 52 54 53 50 50 49 50 49 48 48 42 39 39 44 47 47 47 43 40 38 35 26 21 18 18 18 16 14 12 11 9
81 82 86 85 83 80 65 66 52 57 57 51 49 47 45 44 41 46 48 44 42 44 46 47 46 42 38 34 31 35 40 43 41 43 38 37 34 28 26 19 18 19 19 17 15 11 8 8 7
84 82 84 83 80 61 56 60 42 46 43 40 38 32 28 36 33 35 35 36 38 38 38 33 29 26 25 25 32 37 37 37 39 35 33 29 27 25 19 17 16 19 18 16 17 14 6 3 3
89 86 83 75 69 56 52 41 42 41 34 30 30 26 29 28 29 34 32 32 30 25 22 19 17 19 23 28 34 33 34 33 31 30 24 25 23 20 16 13 16 14 16 19 18 18 12 8 12
93 92 75 76 72 66 56 47 41 35 27 25 30 25 21 23 29 33 26 18 16 14 12 15 15 20 27 30 29 31 34 29 25 21 17 22 19 15 14 11 10 11 14 17 18 14 13 15 14
100 88 90 82 75 65 56 48 44 36 29 26 23 21 21 23 28 21 13 6 8 8 12 14 19 26 25 26 28 32 29 23 22 12 15 23 18 15 11 6 6 10 13 15 9 8 10 15 22
96 94 92 83 77 68 58 50 51 41 29 24 17 18 20 21 19 12 6 7 9 14 18 19 23 23 24 25 30 25 21 20 12 7 14 21 18 16 9 2 6 4 11 14 5 10 11 29 25
95 91 89 86 78 70 63 55 50 36 24 25 22 29 22 21 15 12 10 12 16 15 17 20 21 21 23 26 25 19 16 14 5 6 12 19 18 14 4 4 5 5 8 7 20 14 31 28 24

GFSSGP_250_spd_024.txt.gz
Wind_Speed
45 45 43 45 41 45 45 44 45 43 45 44 41 37 36 38 39 38 41 39 39 40 43 41 41 43 44 43 42 42 41 48 54 59 56 58 58 53 55 59 56 57 57 55 53 56 59 55 53
48 54 50 46 47 47 42 43 50 50 46 41 41 41 40 35 39 42 42 45 44 46 48 46 45 46 45 43 42 41 49 52 54 55 58 58 62 58 58 61 63 62 59 54 54 55 58 59 57
52 47 52 55 52 49 42 45 52 52 46 43 43 47 41 44 46 47 51 53 52 51 55 53 51 49 47 46 44 47 49 47 49 52 55 57 60 59 62 66 65 64 61 55 55 56 60 58 56
59 62 57 55 63 56 52 52 57 57 51 53 54 55 52 51 49 49 52 56 54 51 51 51 53 50 49 44 44 48 50 52 56 59 60 60 63 64 64 66 66 62 58 56 58 61 63 57 56
64 63 56 57 59 62 64 60 57 55 53 51 53 56 54 47 51 54 56 51 42 42 45 47 53 52 52 50 53 55 56 59 61 64 67 69 68 67 66 67 66 59 56 59 62 64 64 59 58
68 68 67 61 61 61 59 56 56 54 54 52 54 58 53 51 52 54 50 45 45 47 47 46 52 53 54 59 62 59 60 63 67 69 69 72 71 69 69 69 64 60 60 63 64 66 63 59 60
84 77 76 75 65 58 62 56 60 59 59 57 56 55 54 51 49 51 49 48 53 54 53 49 52 52 58 56 60 57 63 68 70 70 71 71 72 74 71 71 66 63 63 66 67 66 62 60 59
81 79 79 75 73 62 72 63 62 66 66 61 61 60 60 57 57 53 51 52 52 52 51 50 50 52 56 66 65 64 65 68 68 71 72 74 76 76 76 73 71 69 68 67 66 64 63 60 57
84 80 74 73 74 72 73 72 72 71 67 65 66 67 63 64 65 64 58 50 54 53 52 54 56 58 61 65 67 64 63 68 69 71 75 79 80 78 78 76 73 72 72 69 65 63 61 56 51
82 77 76 70 74 71 75 74 72 73 67 67 67 68 69 72 73 72 66 65 65 64 63 64 63 64 63 64 64 66 68 70 73 76 79 82 81 78 78 77 76 73 72 69 66 64 56 52 48
86 72 72 70 71 74 75 74 74 73 69 72 78 74 72 74 74 68 69 71 69 67 66 65 66 62 62 63 67 68 72 75 77 79 81 83 80 79 78 77 76 74 70 67 66 62 53 54 50
94 85 79 77 77 77 72 74 76 73 72 76 75 73 72 75 76 75 75 76 70 69 75 74 64 65 64 69 73 75 76 78 80 80 83 81 78 79 78 76 75 73 66 65 64 59 56 55 52
99 87 92 89 87 84 83 79 75 74 71 72 69 71 70 71 70 68 67 63 64 63 63 62 63 66 69 72 74 73 75 77 81 81 83 80 78 78 78 77 74 67 66 65 62 60 60 54 48
97 97 93 91 85 83 87 83 81 74 74 70 71 70 70 69 66 66 63 64 64 63 63 64 71 75 76 77 76 78 80 81 81 82 81 77 77 77 77 75 68 63 67 65 63 62 58 53 47
95 102 98 88 83 80 87 76 70 70 71 70 72 70 69 67 63 59 61 64 63 67 71 72 75 76 77 79 84 83 81 81 78 77 77 75 76 75 74 68 64 65 68 66 64 58 53 48 44
89 92 86 76 78 78 89 70 71 78 75 73 78 82 79 69 63 65 65 69 72 78 77 78 79 81 81 83 80 76 76 74 75 74 74 73 72 70 67 64 63 68 67 67 60 54 47 42 37
95 85 86 79 84 89 94 66 77 83 87 85 80 77 76 70 68 69 71 75 78 79 80 81 83 85 85 84 74 72 71 71 70 68 67 67 67 61 62 63 65 67 67 64 59 55 52 49 43
100 99 95 91 98 100 96 76 80 83 84 83 82 79 75 75 73 75 76 81 83 84 84 86 89 91 87 80 76 71 67 65 62 61 62 60 56 60 59 62 65 65 64 60 57 53 49 46 42
112 103 96 95 101 100 93 86 78 83 82 78 74 74 76 77 77 78 80 81 83 85 85 84 81 85 83 78 72 67 64 58 56 56 53 47 54 54 58 60 62 61 60 58 49 42 35 33 35
112 107 101 103 101 99 99 90 89 88 86 85 84 79 79 79 82 81 83 83 80 81 81 78 74 71 70 68 65 61 58 54 52 50 48 43 49 53 56 58 56 56 53 43 36 34 31 28 26
105 100 98 99 100 99 104 97 97 89 88 84 82 81 82 82 83 83 82 80 77 72 70 70 65 65 65 63 60 56 53 51 50 46 42 45 48 51 54 52 52 46 35 32 29 27 24 24 21
103 102 100 99 99 92 95 82 79 74 76 77 77 77 77 78 76 75 74 70 66 65 63 63 64 63 55 52 49 48 48 47 45 43 41 43 47 48 49 47 42 32 27 26 25 25 24 21 17
95 100 99 98 96 93 86 80 64 68 67 69 66 64 64 64 61 62 61 59 61 61 58 59 56 51 46 43 41 42 41 39 39 38 39 43 43 45 45 40 34 26 25 23 23 19 19 15 13
92 94 96 98 97 90 83 81 68 66 69 63 58 55 54 53 52 54 55 54 57 56 52 43 39 38 35 32 32 34 35 35 36 37 38 37 38 40 39 32 24 21 19 19 16 15 12 11 9
94 94 93 94 94 75 72 73 59 62 62 56 52 47 46 46 46 44 46 46 49 45 37 31 28 29 24 23 26 29 31 33 33 35 34 32 32 35 31 24 18 17 17 15 11 11 7 8 7
96 95 88 79 76 65 69 66 50 50 44 45 44 41 38 35 34 35 35 41 33 28 27 23 23 18 18 21 24 28 31 30 33 32 29 25 28 28 24 17 14 14 14 10 13 11 7 7 6
99 92 85 82 76 68 63 55 48 45 37 32 31 33 30 26 28 28 32 23 21 22 19 16 14 15 18 19 27 27 28 32 30 26 22 21 23 21 18 10 10 11 11 15 12 8 6 6 4
97 95 94 85 80 68 60 53 45 46 37 28 26 26 25 21 22 24 18 13 13 11 9 10 15 18 22 26 28 27 29 31 23 20 15 17 19 16 12 6 6 6 13 17 8 4 5 1 4
98 94 94 90 81 71 62 52 51 45 36 29 26 26 19 14 18 14 12 8 9 11 14 18 19 22 25 28 26 27 29 24 19 14 13 15 15 13 6 3 4 8 11 6 6 6 3 5 7
97 96 91 86 79 73 64 56 58 44 35 30 26 25 21 17 12 13 14 12 7 10 16 17 22 24 24 24 25 27 25 18 16 15 11 13 14 10 4 3 0 5 10 6 8 12 12 8 12

GFSSGP_250_spd_030.txt.gz
Wind_Speed
65 65 63 59 58 56 49 46 45 43 40 42 41 36 33 31 32 34 35 37 37 36 39 37 41 46 50 53 57 56 58 51 49 43 51 50 47 47 54 57 62 61 62 56 54 55 57 58 59
72 67 65 63 59 59 58 48 51 45 49 51 51 45 41 38 35 41 41 42 40 36 41 40 43 48 53 56 57 58 55 48 43 48 47 44 51 56 58 59 61 60 55 58 57 58 60 60 59
67 70 69 60 63 60 58 51 54 53 53 49 51 52 49 43 46 42 41 41 44 46 51 50 49 52 56 55 54 56 47 44 50 48 49 52 56 58 59 60 64 60 64 61 61 64 65 63 61
67 72 62 62 69 63 59 58 59 52 55 52 53 52 48 49 51 49 47 46 48 52 53 53 51 55 54 54 54 54 51 56 51 51 51 55 56 58 68 66 62 64 66 69 72 70 68 63 62
67 70 69 66 74 72 70 66 65 61 58 53 53 53 56 51 53 52 50 52 51 54 55 52 54 53 51 52 54 56 55 53 54 55 58 60 59 69 65 62 66 69 73 73 73 71 70 67 65
73 69 64 71 72 73 71 69 64 65 61 60 61 59 55 57 54 51 49 49 50 55 54 51 50 53 54 55 54 52 59 68 66 66 66 60 69 70 64 65 69 74 77 78 78 76 75 71 66
81 78 67 70 72 70 71 68 62 57 60 61 63 62 61 61 61 60 60 63 62 60 53 51 51 52 57 57 64 71 70 69 68 66 70 72 68 65 67 72 77 77 78 77 75 74 73 72 67
74 80 73 77 83 77 71 68 71 65 63 65 62 63 63 62 68 61 61 62 66 57 51 52 52 56 57 66 72 72 69 68 68 71 69 72 72 72 74 77 78 78 77 78 77 75 72 69 66
80 67 67 68 71 74 73 72 72 69 65 66 66 67 68 66 62 64 59 60 58 52 57 56 58 55 62 70 70 71 71 69 69 69 71 70 73 78 78 79 79 81 83 80 78 77 74 69 64
88 77 74 77 77 77 74 72 71 66 69 68 71 74 72 64 57 60 63 57 55 56 57 58 60 64 69 67 69 71 71 75 76 74 71 77 79 82 85 81 84 83 82 80 80 78 71 66 62
96 89 87 84 82 82 78 77 67 66 68 73 72 68 63 60 57 52 55 57 62 61 59 62 65 67 67 67 71 72 75 74 74 75 77 76 81 85 85 86 83 79 79 81 80 74 69 64 57
102 96 95 95 92 88 84 77 75 64 65 69 65 65 59 59 61 61 67 63 61 63 61 63 64 67 67 70 74 76 77 79 76 74 75 79 83 89 91 88 84 82 80 78 73 69 65 59 57
103 103 102 102 104 99 96 90 83 70 68 70 70 68 68 66 61 59 59 62 60 60 65 67 71 73 75 76 77 74 71 72 73 76 78 80 81 83 85 86 82 78 74 70 66 65 60 57 59
108 105 108 109 108 105 104 96 97 83 82 81 82 80 76 74 74 70 69 70 70 71 74 77 77 80 78 69 70 71 75 76 78 80 82 82 80 80 82 81 77 74 69 63 63 63 58 61 62
108 113 112 108 107 108 106 102 93 80 88 87 86 86 89 85 81 79 80 77 74 75 75 77 77 72 67 71 76 77 80 81 82 81 80 79 79 76 78 77 68 62 65 62 59 57 63 67 64
108 112 111 107 109 106 109 103 95 96 100 97 91 92 92 87 84 78 77 75 72 72 74 74 73 71 72 75 73 72 75 76 79 79 81 80 77 76 76 65 56 56 60 54 56 62 65 69 65
112 107 106 106 104 107 108 92 98 101 103 99 97 96 93 89 87 83 76 76 73 73 73 72 72 72 70 69 72 78 81 83 84 85 83 79 76 72 63 53 49 53 52 50 60 67 70 66 58
111 109 106 106 102 108 106 93 94 96 97 93 94 89 86 81 77 76 75 75 72 72 73 70 71 72 74 76 81 85 84 86 88 85 78 76 73 65 53 47 53 50 39 57 65 66 65 59 53
123 118 113 110 108 106 102 99 93 93 94 91 88 85 80 76 76 76 74 70 67 69 72 74 78 79 79 81 85 83 83 84 81 77 75 73 67 53 46 48 44 45 54 64 62 61 58 55 48
128 127 117 112 110 105 100 95 90 87 82 82 81 82 79 77 73 70 68 71 71 71 77 78 79 78 81 82 81 78 78 76 74 74 71 63 52 50 49 44 45 47 51 54 57 54 54 48 46
132 128 125 121 116 109 105 94 89 84 78 77 73 71 71 69 69 71 74 74 75 79 81 74 76 78 75 76 74 70 71 71 71 69 61 54 48 43 38 40 44 49 50 53 48 49 48 46 45
127 129 129 129 127 122 120 99 91 86 81 79 77 79 74 72 75 80 80 78 78 82 78 77 74 69 68 64 65 68 69 66 62 56 53 48 39 36 38 42 44 46 49 45 45 43 43 44 41
122 124 123 121 121 119 108 100 97 99 90 87 90 87 83 88 86 85 82 79 75 76 71 70 65 62 59 60 64 63 61 55 51 50 45 39 28 37 39 41 44 46 43 42 40 37 39 39 35
116 116 118 119 116 106 102 99 89 98 98 97 95 91 90 89 88 83 77 75 75 68 64 59 60 61 59 61 60 54 49 49 45 39 33 32 33 37 39 42 41 39 39 38 34 35 35 34 28
118 114 109 107 104 94 98 94 80 83 88 90 93 91 87 78 73 71 70 68 65 60 61 60 58 57 58 58 51 49 46 41 35 30 30 32 35 39 39 35 33 36 35 31 30 30 28 25 24
112 114 110 104 93 91 93 81 75 72 77 78 82 80 75 69 66 65 64 64 59 56 55 54 51 55 52 48 45 40 35 31 29 30 32 33 36 37 32 28 29 33 29 26 25 25 24 22 21
106 107 109 107 97 90 76 73 68 71 70 67 64 62 63 61 59 58 54 52 49 46 45 48 49 45 42 35 32 29 28 30 31 31 32 35 36 29 26 22 30 30 23 20 19 20 17 16 18
97 102 105 102 98 87 74 68 59 63 60 55 50 49 48 46 44 43 42 43 39 40 41 39 39 34 28 28 27 27 30 31 30 30 34 35 28 26 18 21 28 23 18 18 14 12 12 14 15
89 91 94 93 92 88 78 64 57 59 56 51 45 41 38 34 33 34 37 33 33 32 33 33 25 22 24 24 24 29 31 31 31 34 33 27 25 19 16 22 25 18 16 12 8 9 13 15 15
78 81 84 84 83 84 80 67 61 58 55 46 39 34 30 28 29 33 27 23 28 28 28 28 24 24 21 21 26 28 30 31 32 32 27 25 22 14 17 22 21 11 12 5 8 11 12 17 15

GFSSGP_250_spd_033.txt.gz
Wind_Speed
62 57 62 63 58 59 55 55 52 50 47 42 38 40 37 37 41 34 35 36 37 37 34 34 36 37 43 44 50 46 48 42 45 43 46 49 45 53 50 47 50 51 49 60 61 58 57 58 60
67 64 63 61 66 64 57 55 52 48 52 48 45 44 40 43 44 41 39 38 42 43 42 44 43 48 48 48 54 51 45 45 46 44 46 47 52 55 51 54 56 57 58 66 59 58 58 61 63
68 66 58 63 68 69 62 59 57 55 51 46 51 51 50 47 46 41 42 40 42 45 48 47 49 49 52 55 53 48 44 44 40 44 47 47 61 60 61 61 58 63 64 61 58 60 64 64 64
70 72 67 66 64 64 67 63 61 59 51 51 54 49 51 55 50 45 45 42 48 50 50 50 55 54 61 60 53 47 47 45 44 43 50 62 61 62 63 67 66 67 64 61 64 68 69 68 64
76 69 70 69 65 65 63 60 61 66 64 59 54 55 63 62 51 50 47 47 49 52 54 52 56 60 62 58 52 52 49 47 45 59 63 59 60 62 67 67 67 63 62 68 72 77 74 72 68
77 62 65 72 77 70 62 67 70 59 60 64 65 67 62 62 65 55 51 51 53 54 56 58 58 60 59 53 57 61 54 49 58 68 65 62 64 68 68 68 65 62 69 74 79 77 75 69 68
79 83 65 71 74 76 74 69 67 70 67 63 65 65 62 65 63 56 55 57 56 59 61 61 62 57 58 58 64 61 60 57 65 64 64 66 68 72 67 67 67 71 75 77 80 78 76 72 68
78 78 72 72 76 83 83 76 74 68 64 63 65 63 58 58 58 57 55 58 61 61 63 58 58 58 57 57 61 62 63 67 67 65 68 68 74 70 70 71 71 73 74 80 80 74 74 72 70
84 81 74 73 75 72 78 82 76 76 73 71 68 63 63 65 61 60 61 63 63 66 57 56 58 54 54 62 64 63 66 66 66 68 73 71 73 74 74 72 72 77 78 78 74 74 71 68 62
95 86 84 82 85 85 78 75 77 80 76 70 70 70 68 69 66 65 62 63 64 60 54 49 52 54 64 64 62 68 68 69 69 74 75 78 74 73 72 78 79 80 81 77 73 71 70 66 59
94 87 86 88 86 85 79 75 74 67 62 62 65 67 67 66 65 64 62 62 56 55 55 55 55 64 60 66 67 67 71 71 76 77 79 75 74 75 80 79 81 79 78 77 72 70 71 60 57
100 93 94 93 95 93 91 81 71 73 68 61 60 63 66 65 67 65 64 59 59 58 57 65 63 61 61 62 67 69 75 78 75 81 77 75 77 77 77 77 77 81 79 74 71 72 65 61 57
96 95 95 101 104 101 101 91 86 73 74 73 67 62 61 63 63 63 63 56 54 59 62 60 61 66 66 72 76 74 78 77 78 78 76 75 72 74 78 80 81 82 77 70 69 67 64 58 53
102 100 98 100 103 104 107 100 101 83 84 83 81 72 63 63 64 61 61 62 63 67 67 72 73 72 74 77 79 75 77 77 77 78 74 73 77 82 81 80 81 76 72 69 67 67 58 55 53
112 110 106 102 101 102 104 102 93 87 87 92 86 83 84 82 79 73 70 69 80 81 77 79 81 84 83 81 79 73 74 72 73 76 78 81 83 81 76 78 73 70 68 65 61 61 58 59 55
107 115 112 106 109 105 111 100 86 93 96 92 89 89 88 88 87 86 85 85 81 81 83 85 83 82 79 75 74 69 72 76 78 81 81 81 80 75 73 69 69 67 65 56 58 57 59 58 56
109 110 107 106 109 115 118 101 99 101 99 92 94 95 91 84 84 85 87 87 89 87 86 81 79 77 70 70 65 68 75 79 80 82 85 80 75 72 67 67 62 58 53 50 55 57 55 57 63
117 113 114 111 109 113 112 94 100 100 103 100 98 93 90 89 85 88 86 84 79 77 75 74 72 69 67 63 66 75 78 77 79 82 79 73 70 67 65 62 55 50 50 49 52 53 54 61 66
125 123 119 116 114 111 109 100 99 97 94 93 92 93 90 85 81 78 76 75 74 72 70 68 65 64 62 66 72 77 80 79 81 74 71 66 65 65 60 55 45 41 43 45 47 48 56 60 58
128 122 121 124 120 116 110 104 99 94 91 88 87 86 84 79 77 73 71 72 73 71 67 62 58 58 64 71 78 80 80 78 73 68 65 65 63 57 54 43 43 43 48 44 49 53 54 52 49
126 125 121 120 127 121 111 104 98 95 92 90 86 86 81 74 73 72 70 66 66 60 56 55 59 66 71 77 81 83 75 70 68 66 65 61 53 54 51 35 38 39 45 48 47 52 46 45 44
129 126 122 119 127 121 115 98 99 96 95 93 89 87 82 78 74 71 67 60 59 59 60 64 69 76 78 78 75 70 66 67 67 63 58 54 53 50 34 36 42 45 46 49 47 41 43 41 40
123 125 124 122 119 117 114 103 103 105 103 100 93 90 85 80 75 70 67 66 62 63 65 70 72 76 79 72 66 63 64 65 62 55 53 52 42 36 36 38 39 44 47 41 36 39 39 36 38
122 125 122 122 120 112 105 100 95 100 97 99 100 95 91 84 77 76 73 70 72 71 71 72 72 73 67 61 60 62 62 59 51 51 46 39 32 33 36 39 41 41 37 34 36 36 33 33 32
110 114 118 121 116 103 103 100 88 94 99 96 97 96 94 90 87 86 83 83 77 76 78 79 74 64 59 58 58 57 55 47 45 37 34 33 34 39 38 40 38 33 30 34 33 28 28 25 24
97 98 106 107 109 102 103 86 84 85 88 89 90 91 88 82 76 76 75 77 74 70 70 69 63 59 56 55 51 50 41 39 33 29 32 36 37 36 38 35 30 27 29 32 25 23 24 19 16
88 88 91 96 96 98 95 91 84 76 78 84 82 77 72 65 64 66 66 65 64 62 56 53 52 49 47 47 43 37 34 29 27 30 35 35 35 38 33 27 23 24 30 24 19 21 12 13 15
72 78 85 81 82 85 85 86 83 77 77 75 66 65 61 58 56 57 55 55 54 52 49 45 43 41 41 38 34 30 27 26 29 32 33 33 35 31 25 23 18 24 26 18 11 8 10 13 21
60 63 75 71 71 77 82 82 82 76 70 57 52 52 50 50 46 44 43 43 42 39 36 36 36 35 33 27 27 25 26 27 29 29 31 33 31 25 24 18 19 23 18 5 3 4 8 17 21
51 56 59 65 68 72 79 79 76 70 68 56 49 45 43 42 39 37 35 31 32 31 31 31 28 30 23 20 23 24 26 28 28 30 30 29 24 23 21 16 17 20 7 3 3 3 7 9 12